www.pogodaiklimat.ru

Погода и климат >> Архив погоды >> Австралия >> Западная Австралия >> Джеральдтон


ПОГОДА в Джеральдтоне

  • Прогноз погоды в Джеральдтоне
  • Монитор погоды в Джеральдтоне

АРХИВ ПОГОДЫ в Джеральдтоне

Время (UTC), дата Ветер
(напр.,м/с)
 
Видим.   Явления Облачность Т
(С)
Тd
(С)
f
(%)
Тe
(С)
Тes
(С)
Комфортность P
(гПа)
Po
(гПа)
Тmin
(С)
Tmax
(С)
R
(мм)
R24
(мм)
S
(см)
10 19.03 ЮЗ 5 н/о 10/10 300 м
[]
+23.6 +18.7 74 +28 +28 душно 1010.1 1006.6
12 19.03 Ю 5 н/о н/о +22.9 +18.4 76 +29 +29 очень
душно
1011.2 1007.7
13 19.03 Ю 3 н/о 10/10 600 м
[]
+22.5 +18.1 76 +28 +28 душно 1011.5 1008.0 +26.7
15 19.03 ЮЗ 4 н/о н/о +22.6 +17.7 74 +28 +28 душно 1011.7 1008.2
16 19.03 Ю 3 н/о 10/10 600 м
[]
+22.4 +17.5 74 +27 +27 душно 1011.9 1008.4
18 19.03 Ю 2 н/о н/о +21.6 +18.0 80 +26 +26 душно 1010.8 1007.3
19 19.03 Ю 2 н/о 1/1 600 м
[]
+20.8 +17.6 82 +25 +25 комфорт 1010.5 1007.0
21 19.03 В 2 н/о н/о +20.7 +17.5 82 +25 +25 комфорт 1010.7 1007.2
22 19.03 В 1 н/о 10/10 300 м
[]
+21.4 +17.8 80 +26 +26 душно 1010.9 1007.4
00 20.03 Ю 3 н/о н/о +23.1 +18.6 76 +29 +29 очень
душно
1011.8 1008.3
01 20.03 Ю 2 н/о 10/10 300 м
[]
+23.8 +18.7 73 +28 +28 душно 1012.2 1008.7 +20.3
03 20.03 ЮЗ 4 н/о н/о +26.5 +19.4 65 +32 +32 очень
душно
1011.8 1008.3
04 20.03 ЮЗ 5 н/о 1/1 600 м
[]
+26.6 +19.2 64 +32 +40 очень
душно
1011.3 1007.8
06 20.03 ЮЗ 5 н/о н/о +26.3 +18.4 62 +31 +31 душно 1011.0 1007.5
07 20.03 ЮЗ 6 н/о 3/3 600 м
[]
+25.6 +18.8 66 +31 +34 очень
душно
1010.7 1007.2
09 20.03 ЮЗ 6 н/о н/о +24.1 +19.2 74 +29 +29 душно 1010.4 1006.9
10 20.03 ЮЗ 6 н/о 10/10 300 м
[]
+23.4 +19.1 77 +30 +30 очень
душно
1010.4 1006.9
12 20.03 Ю 4 н/о н/о +22.8 +19.2 80 +29 +29 очень
душно
1010.8 1007.3
13 20.03 Ю 3 н/о 10/10 300 м
[]
+22.0 +18.8 82 +27 +27 душно 1011.2 1007.7 +28.0
15 20.03 Ю 2 н/о н/о +21.2 +18.0 82 +25 +25 комфорт 1010.7 1007.2
16 20.03 Ю 2 н/о 9/9 300 м
[]
+21.1 +18.3 84 +25 +25 комфорт 1010.4 1006.9
18 20.03 штиль 0 н/о н/о +20.5 +17.9 85 +24 +24 комфорт 1010.0 1006.5
19 20.03 С 2 н/о 10/0
[]
+19.9 +17.9 88 +24 +24 комфорт 1009.6 1006.1
21 20.03 С 2 н/о н/о +18.4 +16.4 88 +20 +20 1009.6 1006.1
22 20.03 штиль 0 н/о 10/10 300 м
[]
+17.6 +15.6 88 +18 +18 1009.5 1006.0
00 21.03 З 1 н/о н/о +22.3 +19.7 85 +28 +28 душно 1011.2 1007.7
01 21.03 ЮЗ 5 н/о 10/10 300 м
[]
+24.9 +20.2 75 +31 +31 очень
душно
1011.2 1007.7 +17.2
03 21.03 З 5 н/о н/о +25.9 +19.3 67 +31 +31 очень
душно
1011.3 1007.8
04 21.03 З 4 н/о 6/6 600 м
[]
+25.5 +18.7 66 +30 +35 душно 1010.6 1007.1
06 21.03 З 6 н/о н/о +25.6 +17.8 62 +30 +30 душно 1009.8 1006.3
07 21.03 З 6 н/о 10/10 600 м
[]
+26.0 +18.4 63 +31 +31 очень
душно
1009.5 1006.0
09 21.03 ЮЗ 6 н/о н/о +25.1 +17.1 61 +29 +29 душно 1009.3 1005.8
10 21.03 ЮЗ 6 н/о 10/10 300 м
[]
+23.6 +18.3 72 +28 +28 душно 1009.4 1005.9
12 21.03 Ю 3 н/о н/о +21.8 +18.4 81 +27 +27 душно 1010.3 1006.8
13 21.03 штиль 0 н/о 9/0
[]
+20.6 +17.6 83 +24 +24 комфорт 1010.6 1007.1 +27.6
15 21.03 штиль 0 н/о н/о +19.1 +16.7 86 +21 +21 комфорт 1010.9 1007.4
16 21.03 В 2 н/о 8/8 300 м
[]
+19.4 +17.0 86 +22 +22 комфорт 1010.6 1007.1
18 21.03 ЮЗ 1 н/о н/о +18.3 +16.3 88 +20 +20 1010.3 1006.8
22 21.03 СВ 2 н/о 4/4 300 м
[]
+17.5 +15.8 90 +18 +18 1010.2 1006.7
01 22.03 Ю 6 н/о 1/1 300 м
[]
+24.6 +19.2 72 +30 +32 очень
душно
1011.2 1007.7 +17.0
03 22.03 Ю 7 н/о н/о +26.0 +18.9 65 +31 +31 очень
душно
1011.1 1007.6
04 22.03 ЮЗ 7 н/о 3/3 600 м
[]
+27.1 +18.4 59 +32 +35 очень
душно
1010.4 1006.9
06 22.03 Ю 9 н/о н/о +26.8 +19.7 65 +33 +33 очень
душно
1009.5 1006.0
07 22.03 Ю 9 н/о 4/4 300 м
[]
+26.4 +18.8 63 +31 +32 душно 1009.4 1005.9
09 22.03 Ю 9 н/о н/о +24.3 +19.1 73 +29 +29 душно 1009.7 1006.2
10 22.03 Ю 10 н/о 9/9 300 м
[]
+23.2 +19.4 79 +30 +30 очень
душно
1009.9 1006.4
12 22.03 Ю 11 н/о н/о +22.8 +19.6 82 +29 +29 очень
душно
1011.2 1007.7
13 22.03 Ю 12 н/о 10/10 300 м
[]
+22.6 +19.4 82 +29 +29 очень
душно
1011.8 1008.3 +29.0
15 22.03 Ю 11 н/о н/о +22.3 +18.9 81 +28 +28 душно 1012.2 1008.7
16 22.03 Ю 8 н/о 6/6 300 м
[]
+21.7 +18.5 82 +26 +26 душно 1012.4 1008.9
18 22.03 Ю 7 н/о н/о +21.1 +18.3 84 +25 +25 комфорт 1011.7 1008.2
19 22.03 ЮВ 8 н/о н/о +21.2 +18.0 82 +25 +25 комфорт 1011.3 1007.8
21 22.03 ЮВ 7 н/о н/о +19.9 +16.2 79 +22 +22 комфорт 1011.5 1008.0
22 22.03 ЮВ 6 н/о н/о +19.7 +16.0 79 +22 +22 комфорт 1012.6 1009.1
00 23.03 ЮВ 9 н/о н/о +21.5 +15.6 69 +25 +25 комфорт 1013.4 1009.9
01 23.03 ЮВ 11 н/о н/о +24.1 +15.3 58 +27 +27 жарко 1013.2 1009.7 +19.6
03 23.03 ЮВ 10 н/о н/о +29.5 +16.0 44 +33 +33 душно 1011.9 1008.4
04 23.03 ЮВ 9 н/о н/о +30.7 +15.2 39 +33 +33 душно 1011.1 1007.6
06 23.03 Ю 13 н/о н/о +29.5 +17.7 49 +34 +34 очень
душно
1009.7 1006.2
07 23.03 Ю 12 н/о н/о +27.4 +17.3 54 +31 +31 душно 1009.7 1006.2
09 23.03 Ю 11 н/о н/о +23.9 +17.4 67 +28 +28 душно 1010.4 1006.9
10 23.03 Ю 11 н/о н/о +22.8 +17.3 71 +28 +28 душно 1010.3 1006.8
12 23.03 Ю 11 н/о н/о +22.1 +17.7 76 +27 +27 душно 1011.1 1007.6
13 23.03 Ю 10 н/о н/о +22.1 +17.0 73 +27 +27 душно 1011.9 1008.4 +33.4
15 23.03 ЮВ 8 н/о н/о +20.8 +13.7 64 +23 +23 комфорт 1012.8 1009.3
16 23.03 ЮВ 8 н/о н/о +20.2 +13.6 66 +22 +22 комфорт 1012.8 1009.3
18 23.03 ЮВ 7 н/о н/о +18.6 +12.1 66 +19 +19 1012.5 1009.0
19 23.03 ЮВ 6 н/о н/о +17.7 +11.5 67 +17 +17 1012.6 1009.1
21 23.03 ЮВ 5 н/о н/о +16.4 +10.0 66 +15 +15 1013.1 1009.6
22 23.03 Ю 5 н/о н/о +15.9 +10.2 69 +15 +15 1013.8 1010.3
00 24.03 ЮВ 7 н/о н/о +20.9 +11.0 53 +23 +23 комфорт 1014.4 1010.9
01 24.03 ЮВ 7 н/о н/о +24.7 +10.6 41 +26 +26 жарко 1014.6 1011.1 +15.5
03 24.03 ЮВ 11 н/о н/о +28.8 +7.4 26 +28 +28 жарко 1013.7 1010.2
04 24.03 ЮВ 11 н/о н/о +31.1 +6.2 21 +29 +29 жарко 1012.8 1009.3
06 24.03 Ю 11 н/о н/о +28.7 +12.2 36 +30 +30 жарко 1011.3 1007.8
07 24.03 Ю 11 н/о н/о +27.5 +14.8 46 +30 +30 жарко 1011.2 1007.7
09 24.03 Ю 11 н/о н/о +24.9 +15.2 55 +28 +28 жарко 1011.1 1007.6
10 24.03 Ю 11 н/о н/о +22.7 +16.5 68 +27 +27 душно 1011.6 1008.1
12 24.03 Ю 7 н/о н/о +21.1 +17.1 78 +25 +25 комфорт 1013.1 1009.6
13 24.03 ЮВ 7 н/о н/о +20.7 +16.3 76 +24 +24 комфорт 1013.6 1010.1 +33.7
15 24.03 ЮВ 6 н/о н/о +17.5 +12.0 70 +17 +17 1013.8 1010.3
16 24.03 ЮВ 6 н/о н/о +16.9 +11.4 70 +16 +16 1013.3 1009.8
18 24.03 ЮЗ 3 н/о н/о +18.6 +5.1 41 +19 +19 1013.2 1009.7
19 24.03 В 10 н/о н/о +21.5 +4.1 32 +22 +22 комфорт 1012.4 1008.9
21 24.03 В 13 н/о н/о +20.6 +4.6 35 +20 +20 1012.9 1009.4
22 24.03 В 12 н/о н/о +20.1 +5.7 39 +20 +20 1013.7 1010.2
00 25.03 В 6 н/о н/о +22.1 +7.1 38 +23 +23 комфорт 1015.6 1012.1
01 25.03 В 9 н/о н/о +24.2 +6.9 33 +24 +24 комфорт 1015.3 1011.8 +16.0
03 25.03 В 11 н/о н/о +29.7 +8.2 26 +29 +29 жарко 1014.2 1010.7
04 25.03 В 10 н/о н/о +31.7 +7.4 22 +30 +30 жарко 1013.4 1009.9
06 25.03 В 5 н/о н/о +34.3 +7.4 19 +32 +32 жарко 1011.8 1008.3
07 25.03 В 6 н/о н/о +34.6 +5.1 16 +32 +32 жарко 1011.3 1007.8
09 25.03 В 7 н/о н/о +34.6 +2.2 13 +31 +31 жарко 1011.1 1007.6
10 25.03 В 7 н/о н/о +32.6 +1.7 14 +30 +30 жарко 1011.5 1008.0
12 25.03 Ю 4 н/о н/о +23.5 +10.6 44 +25 +25 комфорт 1013.2 1009.7
13 25.03 ЮВ 4 н/о н/о +22.6 +3.7 29 +23 +23 комфорт 1013.9 1010.4 +35.9
15 25.03 ЮВ 5 н/о н/о +23.2 +2.7 26 +23 +23 комфорт 1013.6 1010.1
16 25.03 Ю 4 н/о н/о +22.1 +2.8 28 +22 +22 комфорт 1013.4 1009.9
18 25.03 В 8 н/о н/о +24.7 +3.9 26 +24 +24 комфорт 1012.7 1009.2
19 25.03 В 9 н/о н/о +24.5 +4.3 27 +24 +24 комфорт 1012.7 1009.2
21 25.03 СВ 7 н/о н/о +23.6 +4.5 29 +23 +23 комфорт 1013.0 1009.5
22 25.03 СВ 8 н/о 9/0
[]
+23.6 +5.0 30 +23 +23 комфорт 1013.5 1010.0
00 26.03 СВ 10 н/о н/о +26.0 +5.0 26 +25 +25 комфорт 1014.0 1010.5
01 26.03 СВ 11 н/о 1/0
[]
+29.0 +5.1 22 +28 +28 жарко 1013.9 1010.4 +21.2
03 26.03 СВ 8 н/о н/о +33.8 +6.2 18 +32 +32 жарко 1013.1 1009.6
04 26.03 СВ 5 н/о н/о +35.5 +5.8 16 +33 +33 жарко 1012.6 1009.1
06 26.03 ЮЗ 6 н/о н/о +35.3 +8.2 19 +34 +34 очень
жарко
1011.2 1007.7
07 26.03 Ю 7 н/о 3/0
[]
+35.1 +8.0 19 +33 +35 жарко 1011.0 1007.5
09 26.03 Ю 8 н/о н/о +31.8 +10.5 27 +32 +32 жарко 1011.5 1008.0
10 26.03 Ю 7 н/о н/о +27.7 +14.3 44 +30 +30 жарко 1012.1 1008.6

 

Местоположение метеостанции Джеральдтон (Западная Австралия, Австралия): широта -28.80 долгота 114.70 высота над уровнем моря 35 м.

В архиве по умолчанию представлена погода в Джеральдтоне за последнюю неделю. Архивные данные за месяц целиком и за предыдущие месяцы, начиная с января 2011 года, Вы можете получить, выбрав интересующий диапазон дат из раскрывающегося списка и нажав кнопку "Ввод!".


*Определитесь, кто Вы:
робот инопланетянин человек

Внимание! Время в таблицах - всемирное. Для получения местного времени необходимо прибавить поправку, которая равна 8 ч.

Смотрите также архив погоды в соседних городах и на ближайших метеорологических станциях:

Погода в Мораве (Западная Австралия, Австралия) (136 км)
Погода в Баджингарре (Западная Австралия, Австралия) (188 км)
Погода в Дауоллину (Западная Австралия, Австралия) (252 км)
Погода в Маунт Магнет (Западная Австралия, Австралия) (316 км)
Погода в Гингине (Западная Австралия, Австралия) (318 км)
Погода в Шарк-Бэе (Западная Австралия, Австралия) (341 км)
Погода в Буллсбрук Пирс (Западная Австралия, Австралия) (343 км)
Погода в Ошен Риф (Западная Австралия, Австралия) (344 км)
Погода в Перт Монт-Лоули (Западная Австралия, Австралия) (365 км)
Погода в Суонборне (Западная Австралия, Австралия) (365 км)

Пояснения к столбцам:

Ветер - указаны скорость ветра в м/с - средняя за 10 мин, порывы в срок и между сроками (в фигурных скобках) и направление, откуда дует ветер: С - северный, СВ - северо-восточный, В - восточный, ЮВ - юго-восточный, Ю - южный, ЮЗ - юго-западный, З - западный, СЗ - северо-западный.
Видимость - горизонтальная дальность видимости в метрах или километрах. При видимости от 1 до 10 км при отсутствии осадков обычно наблюдается дымка, при ухудшении видимости до 1 км и менее - туман. В сухую погоду видимость может ухудшаться дымом, пылью или мглою.
Явления - указаны атмосферные явления, наблюдавшиеся в срок или в последний час перед сроком; фигурными скобками обозначены явления, наблюдавшиеся между сроками (за 1-3 часа до срока); квадратными скобками обозначены град или гололедные отложения с указанием их диаметра в мм.
Облачность - указаны через наклонную черту общая и нижняя облачность в баллах и высота нижней границы облаков в метрах; квадратными скобками обозначены формы облаков: Ci - перистые, Cs - перисто-слоистые, Cc - перисто-кучевые, Ac - высококучевые, As - высокослоистые, Sc - слоисто-кучевые, Ns - слоисто-дождевые, Cu - кучевые, Cb - кучево-дождевые. Подробнее классификацию облаков см. в Атласе облаков (PDF).
T - Температура воздуха - температура, измеренная на высоте 2 м над землей.
Td - Температура точки росы - температура, при понижении до которой содержащийся в воздухе водяной пар достигнет насыщения.
f - Относительная влажность воздуха - влажноcть воздуха, измеренная на высоте 2 м над землей.
Te - Эффективная температура - температура, которую ощущает одетый по сезону человек в тени. Характеристика душности погоды. При расчете учитывается влияние влажности воздуха и скорости ветра на теплоощущения человека.
Tes - Эффективная температура на солнце - температура, которую ощущает человек, с поправкой на солнечный нагрев. Характеристика знойности погоды. Зависит от высоты солнца над горизонтом, облачности и скорости ветра. Ночью, в пасмурную погоду, а также при ветре 12 м/с и более поправка равна нулю.
P - Атмосферное давление - приведенное к уровню моря атмосферное давление.
Po - Атмосферное давление - измеренное на уровне метеостанции атмосферное давление.
Tmin - Минимальная температура - минимум температуры воздуха на высоте 2 м над землей.
Tmax - Максимальная температура - максимум температуры воздуха на высоте 2 м над землей.
R - Количество осадков - Количество выпавших осадков за период времени, мм. При наведении курсора мыши на число - период времени, за который выпало указанное количество осадков.
R24 - Количество осадков - Количество выпавших осадков за 24 часа, мм.
S - Снежный покров - Высота снежного покрова, см. При наведении курсора мыши на число - состояние снежного покрова и степень покрытия местности в баллах.